Location: Unspecified
(38.7273°N, 77.0677°W)
Time: 20:57:48
(UTC-04:00)

CAS-4B - Pass Details

Date: 27 September 2021
Orbit: 528 x 541 km, 43.0° (Epoch: 27 October)

Event Time Altitude Azimuth Distance (km) Brightness Sun altitude
Exits shadow 04:11:40 19° 62° (ENE) 1,308 ? -32.7°
Drops below altitude 10° 04:12:53 10° 66° (ENE) 1,769 ? -32.5°
Sets 04:15:09 0° 71° (ENE) 2,659 ? -32.1°
